Find Beidou DW 8

NORAD ID: 37384 Int'l Des: 2011-013 Owner: CNSA Country: CN Constellation: BeiDou operational
HEOCIRCULARGSO

Current View

Loading 3D Globe...

About Beidou DW 8

Description loading...

Upcoming Passes

Passes for default location (London). Set your location on the main map for personalized predictions.

Altitude History

Loading altitude history...

Two-Line Element Set

1 37384U 11013A 26139.76799347 -.00000201 00000-0 00000-0 0 9998
2 37384 62.3699 40.4207 0033808 185.8234 35.8952 1.00273682 55373
Epoch: May 19, 2026 • Age: 165 hours

Current Status

Altitude 35644.8 km
Velocity 3.09 km/s
Sub-Earth Point -0.20°S, 108.01°E
Launch Date Apr 9, 2011
Age 15.1 years
Type navigation

Technical Details

Classification Payload
Mass 2300.00 kg
Dry Mass 1300.00 kg
Total Mass 2300.00 kg
Length 3.00 m
Diameter 1.70 m
Span 18.00 m
Shape Box + 2 Pan
Manufacturer CAST
Bus Type DFH-3
Phase Status In Orbit
Owner/State CNSA/CN

Most Searched